Overview Statistics Trail Chart Weather Telemetry Raw packets
 

This is the latest recevied weather packets stored in our database for station/object KC1BRV. If no packets are shown the sender has not sent any weather packets the latest 10 day(s).

<< 28 29 30 31 32 33 34 >>
Time Temp. Humidity Pressure Rain* Wind** Luminosity Snow
1788424216 17.78° C 96% 1016.7 hPa 4.83 mm - 0 W/m² -
1788423910 17.78° C 95% 1016.8 hPa 0 mm - 0 W/m² -
1788423606 17.78° C 95% 1016.9 hPa 0 mm - 0 W/m² -
1788423301 17.78° C 95% 1017.2 hPa 0 mm - 0 W/m² -
1788422997 17.78° C 95% 1017.3 hPa 0 mm - 0 W/m² -
1788422693 17.78° C 94% 1017.2 hPa 1.78 mm - 0 W/m² -
1788422389 17.78° C 94% 1017.1 hPa 3.05 mm - 0 W/m² -
1788422084 17.78° C 93% 1017 hPa 1.27 mm - 0 W/m² -
1788421779 17.78° C 93% 1016.9 hPa 0 mm - 0 W/m² -
1788421478 17.78° C 92% 1017.3 hPa 0 mm - 0 W/m² -
1788421173 17.78° C 92% 1017.4 hPa 0 mm - 0 W/m² -
1788420868 17.78° C 92% 1017.4 hPa 0 mm - 0 W/m² -
1788420564 17.78° C 91% 1017.3 hPa 0 mm - 0 W/m² -
1788420260 17.78° C 91% 1017.6 hPa 0 mm - 0 W/m² -
1788419957 17.78° C 90% 1017.6 hPa 0 mm - 0 W/m² -
1788419653 17.78° C 89% 1017.8 hPa 0 mm - 0 W/m² -
1788419349 17.78° C 89% 1017.7 hPa 0 mm - 0 W/m² -
1788419042 17.78° C 89% 1017.8 hPa 0 mm - 0 W/m² -
1788418737 17.78° C 89% 1017.7 hPa 0 mm - 0 W/m² -
1788418437 17.78° C 89% 1017.9 hPa 0 mm - 0 W/m² -
1788418159 17.78° C 89% 1017.9 hPa 0 mm - 0 W/m² -
1788417832 17.78° C 89% 1018 hPa 0 mm - 0 W/m² -
1788417528 17.78° C 89% 1018.5 hPa 0 mm - 0 W/m² -
1788417222 17.78° C 88% 1018.4 hPa 0 mm - 0 W/m² -
1788416913 17.78° C 87% 1018.5 hPa 0 mm - 0 W/m² -

* Rain latest hour (hover to see other rain measurements)
** Current wind speed in m/s (hover to see current wind gust speed)